[[{"header":{"parameterUnit":"m.s-1","parameterCategory":1,"la1":30.2991,"la2":30.254,"lo1":-89.0895,"lo2":-89.0444,"dy":0.0017,"dx":0.0017,"nx":28,"ny":28,"refTime":"2025-08-20T09:00:00:Z","depth":0,"parameterNumber":2,"parameterNumberName":"U-component_of_WINDS"},"data":[0,0,0,0,0,0,0,0,0,0,0,0,0,0,0,0,0,0,0,0,0,0,0,0,0,0,0,0,0,0,0,0,0,0,0,0,0,0,0,0,0,0,0,0,0,0,0,0,0,0,0,0,0,0,0,0,0,0,1.543,1.5431,0,1.5496,1.5497,1.5498,1.5502,1.5501,1.55,1.55,1.5566,1.5568,1.5571,0,0,0,0,0,0,0,0,0,0,0,0,0,1.5303,1.5306,1.543,1.5431,1.5432,1.5496,1.5497,1.5498,1.5502,1.5501,1.55,1.5499,1.5565,1.5568,1.5571,0,0,0,0,0,0,0,0,0,0,0,0,0,1.5363,1.5306,1.543,1.5441,1.5443,1.5496,1.5497,1.5498,1.5502,1.5501,1.55,1.5499,1.5564,1.5568,1.5571,1.5616,0,0,1.5582,1.5584,0,0,0,0,0,0,0,0,1.5359,1.5367,1.5439,1.5441,1.5443,1.549,1.5477,1.5538,1.5502,1.548,1.55,1.5498,1.5541,1.5547,1.5562,1.5619,1.5622,1.5583,1.5585,1.5587,1.5588,0,0,0,0,0,0,0,1.5355,1.5365,1.5456,1.544,1.5442,1.5442,1.5449,1.5488,1.5516,1.5482,1.5482,1.549,1.5542,1.5558,1.5563,1.5623,1.5583,1.5586,1.5588,1.559,1.5718,1.572,0,0,0,0,0,0,1.5349,1.5361,1.5454,1.5458,1.5398,1.5445,1.5453,1.5476,1.5515,1.5521,1.5491,1.549,1.5552,1.5559,1.5565,1.5619,1.5587,1.559,1.5592,1.5717,1.5719,1.572,0,0,0,0,0,0,1.5347,1.5358,1.5451,1.541,1.5422,1.5449,1.5474,1.5478,1.5494,1.5523,1.5527,1.5502,1.5552,1.556,1.5603,1.5621,1.5592,1.5595,1.5716,1.5718,1.5719,1.5727,0,0,0,0,0,0,1.5343,1.5357,1.5375,1.541,1.5424,1.5489,1.5475,1.548,1.55,1.55,1.5534,1.5539,1.5551,1.5598,1.5607,1.5626,1.5598,1.5714,1.5717,1.5719,1.5725,1.5729,1.5732,0,0,0,0,0,1.5338,1.5375,1.5376,1.5387,1.5448,1.549,1.5498,1.5512,1.5502,1.5519,1.5538,1.5538,1.5618,1.5602,1.5612,1.5633,1.5713,1.5716,1.5719,1.5724,1.5728,1.5732,0,0,0,0,0,0,1.5341,1.538,1.5381,1.543,1.5457,1.5491,1.5514,1.5516,1.5546,1.5544,1.5559,1.5567,1.5609,1.5625,1.5607,1.5677,1.5664,1.5669,1.5665,1.5669,1.5673,1.5667,1.5601,0,0,0,0,0,1.5347,1.5379,1.5411,1.5451,1.5464,1.5487,1.5506,1.5514,1.5542,1.5553,1.5574,1.5601,1.5631,1.5651,1.5682,1.5728,1.5734,1.5747,1.575,1.5753,1.5757,1.578,1.5785,1.5729,1.5729,1.5729,0,0,1.536,1.5385,1.5405,1.5452,1.5474,1.5505,1.5496,1.553,1.5553,1.5558,1.5599,1.5616,1.5646,1.569,1.5711,1.5705,1.5774,1.5757,1.5758,1.5761,1.5783,1.5789,1.5793,1.5731,1.573,1.573,0,0,1.54,1.5423,1.5458,1.5479,1.5512,1.5526,1.5534,1.5568,1.5579,1.5621,1.5624,1.5651,1.5705,1.5725,1.5743,1.5788,1.5789,1.5798,1.5815,1.5837,1.5842,1.5846,1.586,1.5865,1.5801,1.5801,1.5801,0,1.5412,1.546,1.5475,1.5509,1.5529,1.5534,1.5569,1.5589,1.5629,1.5642,1.5635,1.5701,1.5722,1.577,1.578,1.5795,1.5804,1.5793,1.584,1.5844,1.5848,1.5862,1.5867,1.5802,1.5802,1.5802,1.5802,0,1.5472,1.5506,1.553,1.5568,1.5591,1.5625,1.5643,1.5664,1.567,1.5685,1.5726,1.5751,1.5785,1.5798,1.5804,1.5846,1.5841,1.5837,1.5824,1.5854,1.5867,1.5872,1.5803,1.5803,1.5803,1.5803,0,0,1.5515,1.5561,1.5569,1.5586,1.5622,1.5647,1.568,1.5714,1.5731,1.5758,1.5785,1.5829,1.5825,1.5845,1.5854,1.5874,1.5905,1.5867,1.5868,1.5872,1.595,1.5952,1.5958,1.5906,1.5907,1.5908,1.5947,0,1.5557,1.5617,1.5631,1.5682,1.5711,1.5717,1.5745,1.5769,1.5783,1.5809,1.5825,1.5855,1.5849,1.586,1.588,1.5897,1.5921,1.5895,1.593,1.5931,1.592,1.5965,1.5967,1.6003,1.5952,1.5953,1.5954,0,1.5615,1.5643,1.5697,1.5727,1.574,1.5765,1.5796,1.5822,1.5848,1.5857,1.5878,1.5884,1.5917,1.5903,1.5948,1.593,1.5945,1.5955,1.5956,1.5959,1.5943,1.5967,1.6015,1.6019,1.5962,1.5962,1.5961,0,1.5638,1.569,1.5728,1.5743,1.5779,1.5796,1.5812,1.5838,1.5856,1.5883,1.5895,1.5925,1.5941,1.5964,1.5977,1.5966,1.602,1.6008,1.6026,1.6026,1.6036,1.6035,1.6085,1.6049,1.6049,1.6049,1.6048,0,1.5683,1.5715,1.5739,1.5763,1.5798,1.5813,1.5847,1.5863,1.5885,1.591,1.5917,1.594,1.5957,1.5982,1.5993,1.6027,1.6034,1.6041,1.6043,1.604,1.6039,1.6049,1.6046,1.605,1.605,1.6049,1.6049,0,1.5715,1.5733,1.5774,1.5805,1.5813,1.5838,1.5863,1.5885,1.5899,1.5931,1.5939,1.5961,1.5991,1.6006,1.6044,1.6051,1.6088,1.609,1.6079,1.608,1.6097,1.6094,1.6154,1.6162,1.6121,1.6122,1.6122,0,1.5742,1.5767,1.58,1.5817,1.5833,1.5862,1.5881,1.5895,1.5914,1.5945,1.5963,1.5993,1.6018,1.6066,1.6084,1.6112,1.6113,1.6132,1.6117,1.6112,1.6111,1.6109,1.6111,1.6134,1.6135,1.6135,1.6135,0,1.5787,1.5794,1.5821,1.5851,1.5873,1.5898,1.5921,1.5935,1.5953,1.5974,1.6005,1.6024,1.6062,1.6091,1.612,1.6135,1.6138,1.614,1.6145,1.6141,1.6133,1.6136,1.6085,1.6138,1.6138,1.6138,1.6138,1.6137,1.5816,1.5837,1.5863,1.5893,1.5912,1.5934,1.5955,1.5972,1.5998,1.603,1.6037,1.6068,1.6092,1.6132,1.6147,1.6172,1.6168,1.6176,1.6178,1.6179,1.6179,1.613,1.6177,1.6177,1.6177,1.6177,1.6177,0,1.5859,1.5876,1.5903,1.5936,1.5959,1.596,1.5986,1.6004,1.6032,1.6055,1.6079,1.6113,1.6141,1.6161,1.6189,1.6204,1.6206,1.6211,1.6209,1.6212,1.6182,1.6174,1.6209,1.6209,1.6209,1.6209,1.6209,1.6209,1.5885,1.592,1.593,1.5974,1.5991,1.6022,1.6037,1.6056,1.6074,1.6111,1.6135,1.6148,1.6168,1.6198,1.6223,1.6228,1.6237,1.6242,1.6247,1.6218,1.6215,1.6211,1.6203,1.6244,1.6244,1.6275,1.6275,1.6275]},{"header":{"parameterUnit":"m.s-1","parameterCategory":1,"la1":30.2991,"la2":30.254,"lo1":-89.0895,"lo2":-89.0444,"dy":0.0017,"dx":0.0017,"nx":28,"ny":28,"refTime":"2025-08-20T09:00:00:Z","depth":0,"parameterNumber":3,"parameterNumberName":"V-component_of_WINDS"},"data":[0,0,0,0,0,0,0,0,0,0,0,0,0,0,0,0,0,0,0,0,0,0,0,0,0,0,0,0,0,0,0,0,0,0,0,0,0,0,0,0,0,0,0,0,0,0,0,0,0,0,0,0,0,0,0,0,0,0,4.184,4.184,0,4.1821,4.1821,4.1821,4.1733,4.1731,4.1729,4.1727,4.1708,4.171,4.1711,0,0,0,0,0,0,0,0,0,0,0,0,0,4.1798,4.18,4.184,4.184,4.1839,4.1821,4.1821,4.1821,4.1733,4.1731,4.1728,4.1726,4.1708,4.1709,4.1711,0,0,0,0,0,0,0,0,0,0,0,0,0,4.1802,4.18,4.184,4.1793,4.1789,4.1821,4.1821,4.1821,4.1734,4.1731,4.1728,4.1725,4.1707,4.1709,4.1711,4.1787,0,0,4.1718,4.1719,0,0,0,0,0,0,0,0,4.1802,4.1803,4.1801,4.1797,4.1792,4.1776,4.1799,4.1809,4.1735,4.1755,4.1727,4.1723,4.1733,4.1733,4.1737,4.1786,4.1785,4.1718,4.172,4.172,4.1721,0,0,0,0,0,0,0,4.1802,4.1804,4.1832,4.1801,4.1795,4.1773,4.177,4.1801,4.1762,4.1753,4.1746,4.1745,4.173,4.1735,4.1736,4.1785,4.1718,4.172,4.1721,4.1722,4.1893,4.1896,0,0,0,0,0,0,4.1808,4.1804,4.1833,4.1832,4.1789,4.1777,4.1773,4.1784,4.1761,4.1755,4.1748,4.1741,4.1733,4.1733,4.1735,4.1819,4.172,4.1722,4.1724,4.189,4.1894,4.1897,0,0,0,0,0,0,4.1807,4.1811,4.1834,4.1816,4.1817,4.1781,4.1794,4.1786,4.179,4.1758,4.175,4.176,4.173,4.1731,4.1774,4.1818,4.1723,4.1725,4.1886,4.1891,4.1895,4.1991,0,0,0,0,0,0,4.1807,4.1812,4.184,4.1818,4.1819,4.1874,4.1797,4.1788,4.1794,4.1785,4.1767,4.1761,4.1728,4.1771,4.1776,4.1819,4.1727,4.1882,4.1888,4.1894,4.1984,4.1999,4.2011,0,0,0,0,0,4.1805,4.1869,4.1842,4.1846,4.1854,4.1877,4.1878,4.1838,4.1798,4.1826,4.1805,4.1761,4.1812,4.1776,4.1781,4.1825,4.1879,4.1886,4.1893,4.1978,4.1996,4.2011,0,0,0,0,0,0,4.1899,4.1865,4.1835,4.1893,4.1889,4.1862,4.1896,4.1859,4.1866,4.1858,4.1809,4.1805,4.1855,4.1844,4.1805,4.1896,4.1838,4.1847,4.1901,4.1917,4.1931,4.1932,4.1729,0,0,0,0,0,4.1926,4.1948,4.1917,4.1971,4.197,4.1934,4.1943,4.1913,4.1906,4.1904,4.1886,4.1881,4.1895,4.1906,4.1918,4.1982,4.1976,4.2015,4.2029,4.204,4.2048,4.2079,4.2095,4.1921,4.1921,4.1921,0,0,4.1983,4.1967,4.1984,4.1989,4.1982,4.2005,4.1933,4.1961,4.1977,4.1908,4.1946,4.1933,4.1924,4.1977,4.2,4.197,4.2094,4.2049,4.2059,4.206,4.2088,4.2104,4.2119,4.1926,4.1925,4.1924,0,0,4.2097,4.2088,4.2131,4.2125,4.2114,4.2089,4.21,4.2079,4.2067,4.2105,4.2053,4.2071,4.2098,4.2093,4.2094,4.2205,4.2164,4.221,4.2281,4.2312,4.2326,4.2338,4.2375,4.239,4.2218,4.2218,4.2218,0,4.2169,4.2201,4.2158,4.2188,4.2191,4.2129,4.2172,4.2168,4.2162,4.2166,4.2132,4.2163,4.2153,4.2203,4.223,4.2234,4.2243,4.2211,4.2327,4.2339,4.2349,4.2385,4.2399,4.2224,4.2223,4.2223,4.2222,0,4.2288,4.2312,4.2347,4.2342,4.235,4.2386,4.2348,4.2361,4.233,4.2308,4.2347,4.2332,4.2339,4.2349,4.232,4.2394,4.2376,4.2336,4.2277,4.2372,4.2404,4.2418,4.2232,4.223,4.2228,4.2227,0,0,4.2462,4.2431,4.2444,4.244,4.2423,4.244,4.2473,4.2479,4.249,4.2488,4.2514,4.2537,4.2499,4.2501,4.247,4.2498,4.2584,4.2454,4.2453,4.2477,4.2663,4.2692,4.2708,4.2557,4.256,4.2561,4.2663,0,4.2569,4.2623,4.2584,4.2645,4.2665,4.2605,4.2634,4.2626,4.2607,4.262,4.2599,4.2615,4.2565,4.2565,4.259,4.2568,4.262,4.256,4.2579,4.258,4.2582,4.2725,4.2757,4.2853,4.2675,4.2678,4.2679,0,4.2702,4.2704,4.2767,4.2744,4.275,4.2777,4.2778,4.2792,4.2782,4.2765,4.2766,4.2728,4.2758,4.2701,4.274,4.27,4.2706,4.2696,4.2699,4.2698,4.2635,4.2727,4.2883,4.2897,4.2699,4.2697,4.2696,0,4.282,4.2839,4.2877,4.2876,4.2851,4.287,4.2861,4.2847,4.2853,4.2854,4.2856,4.2862,4.2864,4.2869,4.2833,4.2795,4.2877,4.2817,4.2863,4.2864,4.2882,4.2881,4.304,4.2889,4.2888,4.2888,4.2888,0,4.2943,4.2983,4.2929,4.2953,4.2996,4.2951,4.2994,4.2978,4.2966,4.2985,4.2935,4.2954,4.2906,4.292,4.2892,4.2928,4.293,4.2917,4.2909,4.2921,4.2922,4.2923,4.2915,4.2892,4.2891,4.289,4.289,0,4.3081,4.3047,4.3085,4.3057,4.3051,4.3084,4.306,4.308,4.3057,4.3082,4.3085,4.3049,4.3062,4.3027,4.3036,4.3017,4.3068,4.305,4.3071,4.3065,4.3113,4.3108,4.3276,4.3295,4.3134,4.3135,4.3137,0,4.3162,4.319,4.3165,4.3174,4.3167,4.3182,4.3187,4.3143,4.315,4.3139,4.3161,4.317,4.3175,4.32,4.3174,4.318,4.3161,4.3219,4.3161,4.3171,4.3159,4.3157,4.3159,4.3231,4.3233,4.3234,4.3236,0,4.3307,4.3288,4.3297,4.3299,4.3306,4.3306,4.3302,4.3312,4.3265,4.3276,4.3288,4.3292,4.33,4.331,4.3309,4.3299,4.326,4.3254,4.3265,4.3276,4.3287,4.328,4.3102,4.325,4.3249,4.3248,4.3247,4.3246,4.3417,4.3439,4.3424,4.3435,4.3427,4.3425,4.3442,4.342,4.343,4.3432,4.3406,4.3424,4.3411,4.3407,4.34,4.3413,4.3387,4.3403,4.3406,4.3411,4.3418,4.3286,4.3414,4.3413,4.3413,4.3412,4.3412,0,4.3558,4.3545,4.3555,4.3551,4.3559,4.3521,4.3514,4.3523,4.3539,4.3531,4.3536,4.355,4.3558,4.3533,4.3538,4.3553,4.3535,4.3555,4.3553,4.3551,4.3442,4.3432,4.357,4.357,4.357,4.357,4.357,4.357,4.3632,4.3667,4.3646,4.3676,4.3663,4.3679,4.3678,4.3675,4.3668,4.3685,4.3691,4.3675,4.3659,4.3661,4.3667,4.3659,4.3663,4.369,4.3676,4.3574,4.3559,4.3544,4.3534,4.3691,4.3691,4.3783,4.3784,4.3784]}]]